Voltar ao catálogo

FENGYUN 1C DEB

AtivoSSO
NORAD 31422·DEBRIS·🇨🇳 China

Lançado May 10, 1999 de Taiyuan Satellite Launch Center

Loading…

Próximas Passagens (próximas 24 horas)

TLE

EnvelhecendoSource: Space-Track

Época: Sep 6, 2026, 11:45 UTC

1 31422U 99025BTJ 26249.49000569  .00000213  00000-0  14481-3 0  9990
2 31422  98.7734 244.5306 0033098 262.6976 248.6994 14.09917649994348

Acompanhe FENGYUN 1C DEB em tempo real com AllMySat

Download on the App Store